Date String (YYYY-MM-DD hh:mm:ss) UTC,Instrument flags,Ambient pressure (hPa),Sample flow (lpm),Bypass flow (lpm),Sample temperature (°C),Ambient temperature (°C),ASC tube jacket temperature (°C),LED temperature (°C),Box temperature (°C),Sample RH (%),Span deviation,Mass concentration (μg/m³),Mass concentration (μg/m³),Mass concentration (μg/m³)
DateTimeUTC,F1_M11,P_M11,Q1_M11,Q2_M11,T1_M11,T2_M11,T3_M11,T4_M11,T5_M11,U1_M11,ZSPAN_M11,X0_M11,X2_M11,X1_M11
2021-10-12 15:00:00,,0815.7,5.00,0.00,28.3,27.3,00.0,37.4,30.0,16.9,0002.9,0017.77,0006.73,0005.31
2021-10-12 15:01:00,,0815.7,5.01,0.00,28.3,27.3,00.0,37.4,30.1,16.7,0002.5,0017.33,0006.65,0005.30
2021-10-12 15:02:00,,0815.7,5.00,0.00,28.3,27.3,00.0,37.4,30.1,16.7,0002.2,0016.47,0006.58,0005.28
2021-10-12 15:03:00,,0815.7,4.99,0.00,28.3,27.3,00.0,37.4,30.1,16.7,0002.3,0016.81,0006.61,0005.29
2021-10-12 15:04:00,,0816.0,5.01,0.00,28.3,27.3,00.0,37.4,30.1,16.7,0002.0,0016.84,0006.66,0005.31
2021-10-12 15:05:00,,0816.1,5.01,0.00,28.3,27.4,00.0,37.4,30.1,16.8,0001.7,0017.66,0006.70,0005.30
2021-10-12 15:06:00,,0816.0,4.99,0.00,28.3,27.4,00.0,37.4,30.1,16.8,0001.4,0018.54,0006.70,0005.30
2021-10-12 15:07:00,,0815.9,5.00,0.00,28.3,27.4,00.0,37.4,30.1,16.7,0001.2,0018.43,0006.70,0005.30
2021-10-12 15:08:00,,0815.8,5.01,0.00,28.3,27.4,00.0,37.4,30.1,16.7,0001.2,0017.91,0006.80,0005.31
2021-10-12 15:09:00,,0815.6,4.99,0.00,28.3,27.4,00.0,37.4,30.1,16.7,0001.5,0017.17,0006.76,0005.32
2021-10-12 15:10:00,,0815.6,4.99,0.00,28.3,27.4,00.0,37.4,30.1,16.7,0001.4,0016.68,0006.78,0005.32
2021-10-12 15:11:00,,0815.9,5.00,0.00,28.3,27.4,00.0,37.4,30.1,16.8,0001.6,0016.41,0006.82,0005.31
2021-10-12 15:12:00,,0816.0,5.02,0.00,28.3,27.4,00.0,37.4,30.1,16.8,0001.8,0017.04,0006.85,0005.32
2021-10-12 15:13:00,,0816.0,5.00,0.00,28.3,27.4,00.0,37.4,30.1,16.7,0002.4,0017.80,0006.90,0005.34
2021-10-12 15:14:00,,0816.0,5.00,0.00,28.3,27.4,00.0,37.4,30.1,16.8,0002.1,0017.38,0006.94,0005.35
2021-10-12 15:15:00,,0816.0,5.01,0.00,28.3,27.5,00.0,37.5,30.1,17.0,0002.7,0016.87,0006.90,0005.34
2021-10-12 15:16:00,,0815.8,5.00,0.00,28.4,27.5,00.0,37.5,30.2,17.0,0002.9,0016.54,0006.86,0005.35
2021-10-12 15:17:00,,0815.5,5.00,0.00,28.4,27.5,00.0,37.5,30.2,16.9,0003.0,0015.78,0006.81,0005.36
2021-10-12 15:18:00,,0815.4,5.00,0.00,28.4,27.5,00.0,37.5,30.2,16.9,0003.2,0016.27,0006.86,0005.38
2021-10-12 15:19:00,,0815.4,5.00,0.00,28.4,27.5,00.0,37.5,30.2,16.8,0003.1,0016.69,0006.79,0005.40
2021-10-12 15:20:00,,0815.5,4.99,0.00,28.4,27.5,00.0,37.5,30.2,16.7,0003.1,0017.08,0006.83,0005.42
2021-10-12 15:21:00,,0815.6,5.00,0.00,28.4,27.5,00.0,37.5,30.2,16.8,0003.3,0017.92,0006.89,0005.45
2021-10-12 15:22:00,,0815.4,5.00,0.00,28.4,27.5,00.0,37.5,30.2,16.8,0003.4,0018.14,0006.95,0005.47
2021-10-12 15:23:00,,0815.5,5.01,0.00,28.4,27.5,00.0,37.5,30.2,16.7,0003.0,0018.39,0007.00,0005.49
2021-10-12 15:24:00,,0815.6,5.00,0.00,28.4,27.5,00.0,37.5,30.2,16.7,0002.5,0017.85,0006.97,0005.51
2021-10-12 15:25:00,,0815.4,5.01,0.00,28.4,27.6,00.0,37.5,30.2,16.7,0002.7,0018.37,0006.98,0005.53
2021-10-12 15:26:00,,0815.4,5.00,0.00,28.4,27.6,00.0,37.5,30.2,16.6,0002.4,0021.13,0007.03,0005.56
2021-10-12 15:27:00,,0815.5,5.00,0.00,28.4,27.5,00.0,37.5,30.2,16.7,0002.6,0022.28,0007.08,0005.60
2021-10-12 15:28:00,,0815.4,5.00,0.00,28.4,27.6,00.0,37.5,30.2,16.7,0002.0,0022.03,0007.14,0005.63
2021-10-12 15:29:00,,0815.4,5.00,0.00,28.5,27.6,00.0,37.5,30.3,16.8,0001.8,0021.88,0007.12,0005.62
2021-10-12 15:30:00,,0815.3,5.01,0.00,28.5,27.5,00.0,37.6,30.2,16.7,0001.7,0021.34,0007.12,0005.62
2021-10-12 15:31:00,,0815.4,5.00,0.00,28.5,27.5,00.0,37.6,30.2,16.8,0001.2,0021.26,0007.12,0005.62
2021-10-12 15:32:00,,0815.2,4.99,0.00,28.5,27.5,00.0,37.6,30.2,16.8,0001.0,0020.77,0007.14,0005.61
2021-10-12 15:33:00,,0815.2,4.99,0.00,28.5,27.6,00.0,37.6,30.3,16.7,0001.1,0020.63,0007.12,0005.62
2021-10-12 15:34:00,,0815.2,5.01,0.00,28.5,27.6,00.0,37.6,30.3,16.7,0001.4,0020.28,0007.11,0005.63
2021-10-12 15:35:00,,0815.3,4.99,0.00,28.5,27.6,00.0,37.6,30.3,16.6,0001.9,0020.74,0007.16,0005.63
2021-10-12 15:36:00,,0815.2,5.01,0.00,28.5,27.6,00.0,37.6,30.3,16.6,0001.8,0020.99,0007.17,0005.63
2021-10-12 15:37:00,,0815.3,5.00,0.00,28.5,27.6,00.0,37.6,30.3,16.8,0001.8,0018.96,0007.14,0005.63
2021-10-12 15:38:00,,0815.3,4.99,0.00,28.5,27.6,00.0,37.6,30.3,16.7,0001.5,0017.01,0007.08,0005.62
2021-10-12 15:39:00,,0815.3,5.01,0.00,28.5,27.6,00.0,37.6,30.3,16.7,0001.8,0016.96,0007.00,0005.60
2021-10-12 15:40:00,,0815.2,4.99,0.00,28.5,27.6,00.0,37.6,30.3,16.7,0002.0,0016.79,0006.99,0005.62
2021-10-12 15:41:00,,0815.3,5.00,0.00,28.5,27.6,00.0,37.6,30.3,16.7,0002.1,0016.67,0006.99,0005.63
2021-10-12 15:42:00,,0815.2,5.01,0.00,28.5,27.6,00.0,37.6,30.3,16.6,0001.8,0016.53,0007.00,0005.63
2021-10-12 15:43:00,,0815.2,5.00,0.00,28.5,27.7,00.0,37.6,30.3,16.7,0001.6,0016.52,0006.95,0005.63
2021-10-12 15:44:00,,0815.2,5.00,0.00,28.5,27.7,00.0,37.6,30.3,16.7,0001.6,0016.84,0006.92,0005.63
2021-10-12 15:45:00,,0815.2,5.01,0.00,28.5,27.7,00.0,37.6,30.3,16.7,0002.1,0017.24,0006.90,0005.63
2021-10-12 15:46:00,,0815.2,4.99,0.00,28.5,27.7,00.0,37.7,30.3,16.7,0001.9,0016.97,0006.90,0005.64
2021-10-12 15:47:00,,0815.2,4.98,0.00,28.6,27.6,00.0,37.7,30.3,16.7,0001.9,0016.48,0006.94,0005.66
2021-10-12 15:48:00,,0815.4,5.01,0.00,28.6,27.6,00.0,37.7,30.3,16.7,0002.7,0016.24,0007.01,0005.67
2021-10-12 15:49:00,,0815.4,5.00,0.00,28.6,27.6,00.0,37.7,30.3,16.7,0002.8,0016.90,0007.07,0005.68
2021-10-12 15:50:00,,0815.3,5.00,0.00,28.6,27.6,00.0,37.7,30.3,16.6,0002.9,0017.82,0007.15,0005.70
2021-10-12 15:51:00,,0815.3,5.01,0.00,28.6,27.6,00.0,37.7,30.3,16.6,0002.6,0018.03,0007.18,0005.71
2021-10-12 15:52:00,,0815.4,5.00,0.00,28.6,27.6,00.0,37.7,30.3,16.6,0002.5,0018.27,0007.25,0005.72
2021-10-12 15:53:00,,0815.4,5.00,0.00,28.6,27.6,00.0,37.7,30.3,16.7,0002.7,0017.99,0007.32,0005.76
2021-10-12 15:54:00,,0815.2,5.00,0.00,28.6,27.6,00.0,37.7,30.3,16.7,0002.9,0017.81,0007.35,0005.79
2021-10-12 15:55:00,,0815.3,5.00,0.00,28.6,27.6,00.0,37.7,30.3,16.7,0003.0,0017.62,0007.36,0005.80
2021-10-12 15:56:00,,0815.2,5.00,0.00,28.6,27.6,00.0,37.7,30.3,16.7,0002.6,0017.19,0007.43,0005.82
2021-10-12 15:57:00,,0815.2,5.00,0.00,28.6,27.6,00.0,37.7,30.3,16.8,0002.1,0017.40,0007.43,0005.83
2021-10-12 15:58:00,,0815.1,5.01,0.00,28.6,27.6,00.0,37.7,30.3,16.8,0002.0,0017.38,0007.37,0005.83
2021-10-12 15:59:00,,0815.1,5.00,0.00,28.6,27.6,00.0,37.7,30.3,16.8,0001.2,0017.45,0007.34,0005.83
